{"data":{"norad_id":55668,"intl_designator":"2023-021AS","name":"STARLINK-5455","alt_names":[],"object_type":"PAYLOAD","status":"ACTIVE","operator":null,"country":"US","launch_date":"2023-02-17","launch_site_code":"AFWTR","launch_vehicle":null,"mission":null,"orbit_class":"UNKNOWN","rcs_meters":null,"size_class":null,"mass_kg":null,"dimensions":null,"purposes":["comms"],"wikipedia_slug":null,"has_3d_model":false,"image_url":null,"decayed_at":null,"tle_current":{"epoch":"2026-09-20T13:35:05.217504Z","epoch_age_seconds":97380,"freshness":"FRESH","line1":"1 55668U 23021AS  26263.56603261 -.00000161  00000+0 -56843-5 0  9996","line2":"2 55668  70.0008  33.1637 0003040 269.2070  90.8740 14.98329493198461","mean_motion":14.98329493,"eccentricity":0.000304,"inclination_deg":70.0008,"raan_deg":33.1637,"arg_perigee_deg":269.207,"mean_anomaly_deg":90.874,"bstar":-5.6843e-6,"rev_number":19846,"period_min":96.107031646076,"perigee_km":569.94459968506,"apogee_km":574.17031791601,"semimajor_km":6950.1944588005,"source":"CELESTRAK","updated_at":"2026-09-21T09:00:33.309267Z"}}}